CAPE
0 0 0 0 103 34 24 7 1 62 15 227 75 71 66 8 0 0 4 35 69 55 111 86 93 580 961 774 575 917 887 970
0 0 0 27 12 0 2 78 48 52 22 166 94 55 53 58 0 0 0 0 21 51 70 178 120 377 1136 1036 664 637 1059 869
3 0 0 0 0 0 0 0 13 130 31 79 0 50 15 37 65 1 0 0 0 24 78 60 144 409 710 970 1178 906 961 793
0 2 0 0 0 0 0 0 0 9 41 12 9 110 56 2 14 31 12 0 0 75 80 151 244 226 393 272 820 883 841 752
1 6 12 1 0 0 0 0 0 0 14 90 102 0 70 29 143 180 89 0 151 322 76 141 107 50 53 67 575 840 671 947
0 0 0 5 6 6 0 0 0 1 344 80 18 23 5 0 17 388 156 37 276 261 131 157 1 0 0 0 6 358 923 797
1 4 0 0 0 2 4 0 0 180 475 189 48 33 111 0 170 304 168 170 264 196 100 36 0 0 2 0 35 129 266 571
7 3 1 2 5 0 0 8 3 413 327 88 8 166 112 28 448 759 687 552 567 375 259 5 0 0 0 0 1 415 186 279
7 31 3 0 14 16 30 314 355 691 470 350 0 2 43 0 70 32 283 286 757 864 865 692 103 0 223 158 309 233 138 163
109 20 38 138 5 3 283 414 223 340 459 24 0 0 5 175 176 3 3 1 7 24 23 105 802 468 538 368 338 271 233 398
97 26 123 182 58 0 107 201 216 382 1 284 91 21 1 1 1 4 4 2 5 5 6 4 3 291 559 524 281 340 332 359
177 207 165 179 63 3 0 186 377 422 391 437 305 83 216 4 1 3 1 2 4 5 3 3 4 3 0 113 201 381 363 321
85 3 133 16 52 94 1 161 437 252 405 127 37 26 4 1 2 1 2 1 1 5 5 6 2 0 0 5 3 3 8 172
63 90 0 9 188 211 102 0 352 405 375 87 2 2 2 3 3 2 1 1 1 1 1 1 1 2 2 2 1 0 0 0
170 196 85 55 42 3 3 508 443 134 0 0 0 1 1 3 2 1 2 1 0 0 0 0 0 0 0 1 0 0 0 0
265 135 199 49 251 244 479 355 201 80 0 0 1 4 4 2 0 0 0 0 0 0 0 0 0 0 0 0 0 0 0 0
210 14 34 201 507 678 791 449 191 12 0 0 0 3 1 0 0 0 0 0 0 0 0 0 0 0 0 0 0 0 0 0
405 59 350 357 458 778 658 521 213 15 0 2 0 0 0 0 0 0 0 0 0 0 0 0 0 0 0 0 0 0 0 0
511 521 118 180 169 780 656 483 191 2 0 0 0 0 0 0 0 0 0 0 0 0 0 0 0 0 0 0 0 0 0 0
CIN
-0 -0 -0 -0 -46 -87 -122 -118 -6 -71 -106 -102 -214 -203 -192 -220 -0 -0 -162 -202 -149 -133 -145 -100 -55 -44 -59 -96 -88 -58 -58 -33
-0 -0 -0 -18 -40 -0 -38 -32 -30 -76 -56 -102 -160 -163 -102 -215 -0 -0 -0 -0 -90 -118 -159 -141 -77 -127 -68 -89 -114 -90 -59 -37
-6 -0 -0 -0 -0 -0 -0 -0 -37 -74 -96 -377 -0 -276 -221 -136 -169 -77 -0 -0 -23 -133 -155 -205 -133 -130 -89 -67 -80 -44 -36 -39
-2 -36 -0 -0 -0 -0 -0 -0 -0 -45 -71 -325 -302 -267 -396 -37 -106 -155 -245 -26 -0 -233 -290 -193 -184 -146 -146 -118 -89 -57 -44 -32
-38 -11 -68 -4 -0 -0 -0 -0 -0 -0 -62 -299 -310 -0 -350 -226 -267 -214 -191 -0 -157 -175 -220 -248 -278 -299 -252 -255 -114 -65 -51 -35
-0 -0 -33 -25 -60 -41 -0 -0 -0 -21 -137 -238 -240 -232 -113 -163 -137 -154 -215 -252 -153 -200 -234 -235 -151 -0 -0 -0 -188 -76 -67 -61
-5 -61 -0 -0 -2 -58 -46 -0 -0 -29 -29 -225 -195 -157 -56 -10 -317 -153 -182 -165 -131 -211 -238 -347 -0 -0 -313 -44 -173 -74 -134 -95
-15 -50 -21 -59 -42 -0 -0 -60 -1 -114 -128 -170 -287 -228 -181 -319 -157 -88 -63 -72 -87 -136 -136 -309 -0 -0 -0 -0 -1 -25 -109 -142
-10 -22 -7 -0 -24 -82 -57 -34 -114 -105 -33 -163 -0 -119 -290 -0 -140 -0 -193 -248 -115 -84 -83 -93 -270 -0 -180 -263 -131 -58 -92 -113
-10 -22 -40 -40 -106 -87 -65 -33 -47 -104 -46 -242 -0 -0 -276 -98 -107 -84 -0 -0 -188 -524 -479 -156 -34 -106 -65 -82 -46 -58 -107 -83
-21 -35 -6 -46 -102 -13 -48 -97 -37 -33 -22 -31 -100 -141 -0 -0 -0 -0 -0 -0 -0 -0 -0 -0 -0 -188 -35 -35 -49 -70 -69 -56
-20 -12 -9 -60 -130 -16 -0 -74 -46 -52 -11 -23 -24 -112 -60 -0 -0 -0 -0 -0 -0 -0 -0 -0 -0 -0 -0 -163 -93 -38 -39 -46
-35 -104 -55 -106 -146 -153 -9 -40 -41 -77 -70 -143 -239 -122 -0 -0 -0 -0 -0 -0 -0 -0 -0 -0 -0 -0 -0 -0 -0 -0 -195 -97
-47 -29 -0 -162 -93 -61 -126 -0 -29 -56 -50 -167 -0 -0 -0 -0 -0 -0 -0 -0 -0 -0 -0 -0 -0 -0 -0 -0 -0 -0 -0 -0
-49 -53 -156 -135 -144 -136 -137 -38 -67 -222 -0 -0 -0 -0 -0 -0 -0 -0 -0 -0 -0 -0 -0 -0 -0 -0 -0 -0 -0 -0 -0 -0
-66 -105 -94 -169 -62 -137 -24 -117 -126 -214 -0 -0 -0 -0 -0 -0 -0 -0 -0 -0 -0 -0 -0 -0 -0 -0 -0 -0 -0 -0 -0 -0
-57 -180 -84 -91 -10 -31 -59 -96 -147 -228 -0 -0 -0 -0 -0 -0 -0 -0 -0 -0 -0 -0 -0 -0 -0 -0 -0 -0 -0 -0 -0 -0
-12 -149 -30 -28 -5 -32 -31 -74 -111 -175 -0 -0 -0 -0 -0 -0 -0 -0 -0 -0 -0 -0 -0 -0 -0 -0 -0 -0 -0 -0 -0 -0
-39 -59 -86 -41 -11 -23 -33 -30 -66 -74 -0 -0 -0 -0 -0 -0 -0 -0 -0 -0 -0 -0 -0 -0 -0 -0 -0 -0 -0 -0 -0 -0
Wind_Speed
12 12 8 6 8 12 6 2 1 5 4 9 15 3 11 10 18 18 15 13 11 11 7 7 12 17 16 15 12 8 11 7
13 6 7 7 6 2 1 6 4 5 3 5 3 5 6 15 19 17 17 15 13 10 14 11 10 8 12 14 15 13 10 9
1 4 5 2 4 4 1 4 6 5 6 7 7 8 6 6 14 16 16 17 14 8 12 9 5 10 10 11 10 9 7 10
8 7 9 6 7 6 5 9 3 5 5 9 3 10 5 6 9 13 15 16 13 12 12 11 7 7 7 5 8 11 9 11
10 9 10 1 6 5 4 3 5 1 6 5 6 9 18 15 8 16 20 17 15 13 15 12 8 9 7 4 6 8 11 13
6 9 8 9 13 10 1 3 7 5 4 1 4 4 8 6 3 21 18 18 16 13 12 11 10 11 6 3 5 8 7 9
6 5 10 10 11 15 8 8 2 3 7 7 2 5 13 22 14 15 16 15 16 16 12 12 13 11 10 7 9 9 6 5
5 7 6 6 11 12 10 15 9 16 12 5 12 14 14 20 23 8 8 9 9 16 18 16 15 14 14 16 14 3 4 4
5 7 5 3 7 7 10 19 11 11 5 9 9 9 4 6 14 19 15 14 8 9 11 13 16 15 13 14 13 8 5 5
3 5 3 4 10 11 16 18 17 14 13 11 5 4 11 12 14 13 15 16 11 9 10 9 5 11 11 12 13 10 8 6
4 5 4 9 9 9 7 10 14 12 11 9 5 8 9 13 17 13 10 9 10 10 9 8 9 3 8 7 8 8 8 8
7 1 2 8 14 9 8 5 14 12 11 8 4 5 3 11 11 13 11 10 10 9 7 10 9 8 10 7 5 5 6 6
4 3 3 11 16 13 3 1 3 8 12 13 9 6 5 6 9 9 8 10 8 9 10 8 8 9 12 8 8 5 6 7
1 3 5 9 5 5 6 7 4 9 13 17 14 11 9 7 8 10 10 11 11 8 8 9 8 8 11 11 7 7 9 9
4 3 4 5 6 8 9 10 8 11 9 12 12 11 7 6 8 10 8 9 8 7 8 9 9 9 11 7 8 8 10 10
3 4 9 14 2 13 4 13 11 10 8 11 13 9 7 9 9 7 5 8 6 7 8 7 7 8 7 6 6 7 8 9
1 5 2 6 5 12 14 12 13 12 11 11 11 9 8 7 9 6 7 6 5 5 6 6 6 7 6 6 4 5 5 5
2 11 6 6 6 10 11 12 12 13 10 11 9 9 8 7 7 8 7 5 5 5 4 5 5 5 5 4 5 5 5 3
5 7 8 6 5 10 10 12 11 12 11 11 8 6 5 5 2 4 2 3 6 8 6 4 3 4 4 5 4 6 5 3
Wind_Direction
195 230 169 200 195 229 110 235 101 164 216 304 340 133 181 181 194 187 176 172 188 179 150 180 161 168 167 165 171 173 168 172
203 176 274 161 226 290 42 141 212 179 180 199 261 328 264 186 194 187 182 183 199 164 165 165 176 124 154 167 172 177 167 165
291 125 214 274 288 288 161 161 178 152 235 214 198 190 226 308 220 195 193 183 190 173 160 135 145 125 163 170 151 174 165 170
290 293 200 229 222 220 137 288 288 165 243 204 270 131 173 197 264 216 196 193 187 169 141 131 112 109 143 197 169 180 165 179
326 332 354 263 263 257 238 15 283 341 258 168 218 153 188 194 179 186 214 182 145 147 162 145 121 113 107 62 291 194 186 181
205 211 258 319 332 328 215 174 255 272 110 129 298 41 309 253 220 187 181 175 150 149 156 148 122 120 108 353 279 304 165 170
218 299 242 293 303 318 335 303 257 205 144 113 84 351 284 249 258 167 175 166 145 146 144 146 146 150 156 164 248 258 211 170
290 271 252 316 341 301 314 342 294 76 64 11 12 45 350 37 18 9 98 121 131 139 148 157 161 171 188 177 212 208 151 139
293 2 60 63 10 340 6 44 48 55 18 56 70 55 22 61 63 351 46 36 35 106 145 154 173 182 176 172 170 178 173 169
269 49 289 105 32 19 68 59 59 69 59 64 69 59 19 48 73 67 31 21 9 34 47 25 148 169 173 176 182 169 169 164
178 179 222 54 26 22 360 46 47 54 59 96 119 80 46 46 56 47 58 53 15 14 11 12 4 314 158 144 157 162 164 151
331 105 260 37 9 331 306 58 14 63 59 19 331 68 43 25 47 66 38 33 31 23 26 16 2 34 64 73 109 94 140 149
7 354 13 0 335 320 23 114 25 34 84 78 66 53 69 42 60 68 70 56 38 39 40 25 20 50 66 49 53 29 47 99
15 151 276 0 349 65 236 285 119 65 98 103 104 84 58 48 46 50 48 51 43 49 46 37 31 63 72 58 30 38 58 53
154 186 85 24 328 308 307 83 82 91 93 106 109 98 100 81 58 54 52 61 57 52 55 48 46 50 65 43 52 51 58 47
105 144 133 98 139 263 177 97 90 92 92 92 99 118 123 103 85 69 62 57 51 60 57 48 43 50 50 56 57 57 60 74
90 64 171 213 169 101 106 108 103 92 97 105 114 112 114 105 96 74 70 64 64 63 68 40 33 42 33 51 65 75 62 80
148 176 146 151 115 130 129 127 120 116 111 116 128 135 138 135 133 131 127 125 109 107 103 106 89 71 45 37 78 74 74 64
141 128 129 143 105 144 129 133 128 121 130 133 139 144 135 117 51 17 27 101 140 139 129 78 58 81 67 52 34 75 85 60